User: anonymous   Login
Location: Stockholm
(59.3330°N, 18.0500°E)
Time: 13:36:36
(UTC+02:00)
Language:

RS-15 - Orbit

View from above orbital plane
View from above orbital plane
View from above satellite
View from above satellite

Ground track
Ground track

The orbit data is extracted from the following two-line orbital elements,

1 23439U 94085A   23086.93913433 -.00000039  00000-0  10000-3 0  9998
2 23439  64.8146  47.0980 0165034 224.4003 134.3591 11.27574052163453
Epoch (UTC): 27 March 2023 22:32:21
Eccentricity: 0.0165034
inclination: 64.8146°
perigee height: 1884 km
apogee height: 2161 km
right ascension of ascending node: 47.0980°
argument of perigee: 224.4003°
revolutions per day: 11.27574052
mean anomaly at epoch: 134.3591°
orbit number at epoch: 16345

The dashed part of the orbit path shows where the satellite is in the earth's shadow,  

DLR